Reidsville, NC

11:57 AM EDT on May 25, 2017 (GMT -0400)
Reidsville

Weather History for KSIF - March, 2014

Change the Weather History Date:

Friday, March 21, 2014

  Actual Average (KGSO) Record (KGSO)
Temperature  
Mean Temperature 48 °F -  
Max Temperature 68 °F 61 °F 89 °F (1968)
Min Temperature 28 °F 39 °F 15 °F (1965)
Degree Days  
Heating Degree Days 17    
Moisture  
Dew Point 28 °F    
Average Humidity 49    
Maximum Humidity 89    
Minimum Humidity 21    
Precipitation  
Precipitation 0.00 in - - ()
Sea Level Pressure  
Sea Level Pressure 30.08 in    
Wind  
Wind Speed 3 mph (SW)    
Max Wind Speed 15 mph    
Max Gust Speed 24 mph    
Visibility 10 miles    
Events      
Averages and records for this station are not official NWS values.
T = Trace of Precipitation, MM = Missing Value Source: NWS Daily Summary

Daily Weather History Graph

Daily Weather History Graph

Search for Another Location

Airport or City:

Trip Planner

Search our weather history database for the weather conditions in past years. The results will help you decide how hot, cold, wet, or windy it might be!

Date:

Astronomy

Mar. 21, 2014 Rise Set
Actual Time 7:21 AM EDT 7:32 PM EDT
Civil Twilight 6:55 AM EDT 7:57 PM EDT
Nautical Twilight 6:25 AM EDT 8:27 PM EDT
Astronomical Twilight 5:55 AM EDT 8:58 PM EDT
Moon No Moon Rise 10:19 AM EDT (3/21)
Length of Visible Light 13h 01m
Length of Day
12h 10m
Waning Gibbous, 75% of the Moon is Illuminated
Mar 21
Waning Gibbous
Mar 23
Last Quarter
Mar 30
New
Apr 7
First Quarter
Apr 15
Full

Hourly Weather History & Observations

Time (EDT) Temp. Windchill Dew Point Humidity Pressure Visibility Wind Dir Wind Speed Gust Speed Precip Events Conditions
12:15 AM 36.3 °F - 25.2 °F 64% 30.07 in 10.0 mi Calm Calm - N/A   Clear
12:35 AM 34.3 °F - 25.2 °F 69% 30.07 in 10.0 mi Calm Calm - N/A   Clear
12:55 AM 36.5 °F - 25.3 °F 64% 30.07 in 10.0 mi Calm Calm - N/A   Clear
1:15 AM 33.8 °F - 25.3 °F 71% 30.06 in 10.0 mi Calm Calm - N/A   Clear
1:35 AM 34.3 °F - 24.8 °F 68% 30.07 in 10.0 mi Calm Calm - N/A   Clear
1:55 AM 33.4 °F - 25.5 °F 73% 30.07 in 10.0 mi Calm Calm - N/A   Clear
2:15 AM 32.2 °F - 26.2 °F 79% 30.08 in 10.0 mi Calm Calm - N/A   Clear
2:35 AM 33.6 °F 30.6 °F 26.1 °F 74% 30.08 in 10.0 mi West 3.5 mph - N/A   Clear
2:55 AM 34.0 °F - 26.1 °F 73% 30.08 in 10.0 mi Calm Calm - N/A   Clear
3:15 AM 33.4 °F - 26.2 °F 75% 30.07 in 10.0 mi Calm Calm - N/A   Clear
3:35 AM 32.0 °F - 26.2 °F 79% 30.07 in 10.0 mi Calm Calm - N/A   Clear
3:55 AM 31.8 °F - 25.2 °F 76% 30.08 in 10.0 mi Calm Calm - N/A   Clear
4:15 AM 31.3 °F - 24.8 °F 77% 30.08 in 10.0 mi Calm Calm - N/A   Clear
4:35 AM 29.3 °F - 25.3 °F 85% 30.08 in 10.0 mi Calm Calm - N/A   Clear
4:55 AM 29.5 °F - 25.0 °F 83% 30.09 in 10.0 mi Calm Calm - N/A   Clear
5:15 AM 30.4 °F - 25.0 °F 80% 30.09 in 10.0 mi Calm Calm - N/A   Clear
5:35 AM 29.7 °F - 25.7 °F 85% 30.10 in 10.0 mi Calm Calm - N/A   Clear
5:55 AM 30.0 °F - 25.2 °F 82% 30.10 in 10.0 mi Calm Calm - N/A   Clear
6:15 AM 29.3 °F 25.6 °F 25.5 °F 86% 30.10 in 10.0 mi SSW 3.5 mph - N/A   Clear
6:35 AM 29.8 °F - 24.8 °F 81% 30.10 in 10.0 mi Calm Calm - N/A   Clear
6:55 AM 28.2 °F - 24.8 °F 87% 30.11 in 10.0 mi Calm Calm - N/A   Clear
7:15 AM 28.0 °F - 25.2 °F 89% 30.12 in 10.0 mi Calm Calm - N/A   Clear
7:35 AM 29.7 °F - 26.1 °F 86% 30.13 in 10.0 mi Calm Calm - N/A   Clear
7:55 AM 30.2 °F - 26.2 °F 85% 30.12 in 10.0 mi Calm Calm - N/A   Clear
8:15 AM 31.8 °F - 28.2 °F 87% 30.12 in 10.0 mi Calm Calm - N/A   Clear
8:35 AM 34.2 °F 31.2 °F 29.1 °F 82% 30.13 in 10.0 mi SW 3.5 mph - N/A   Clear
8:55 AM 38.3 °F 35.9 °F 29.1 °F 70% 30.13 in 10.0 mi SSW 3.5 mph - N/A   Clear
9:15 AM 41.7 °F 38.8 °F 30.0 °F 63% 30.13 in 10.0 mi SSW 4.6 mph - N/A   Clear
9:35 AM 44.6 °F 42.2 °F 29.5 °F 55% 30.14 in 10.0 mi SSW 4.6 mph - N/A   Clear
9:55 AM 47.7 °F - 29.5 °F 49% 30.14 in 10.0 mi SSW 6.9 mph - N/A   Clear
10:15 AM 49.8 °F - 29.8 °F 46% 30.14 in 10.0 mi SW 6.9 mph - N/A   Clear
10:35 AM 52.3 °F - 29.7 °F 42% 30.14 in 10.0 mi SSW 8.1 mph - N/A   Clear
10:55 AM 54.1 °F - 31.1 °F 41% 30.14 in 10.0 mi SW 8.1 mph - N/A   Clear
11:15 AM 56.5 °F - 29.8 °F 36% 30.15 in 10.0 mi SW 8.1 mph - N/A   Clear
11:35 AM 58.5 °F - 28.6 °F 32% 30.15 in 10.0 mi SW 10.4 mph - N/A   Clear
11:55 AM 60.1 °F - 28.4 °F 30% 30.14 in 10.0 mi SW 10.4 mph - N/A   Clear
12:15 PM 60.8 °F - 28.4 °F 29% 30.14 in 10.0 mi West 9.2 mph - N/A   Clear
12:35 PM 61.0 °F - 27.7 °F 28% 30.13 in 10.0 mi SW 8.1 mph 16.1 mph N/A   Clear
12:55 PM 62.6 °F - 28.2 °F 27% 30.12 in 10.0 mi SW 6.9 mph - N/A   Clear
1:15 PM 63.5 °F - 29.1 °F 27% 30.11 in 10.0 mi SW 12.7 mph 17.3 mph N/A   Clear
1:35 PM 64.0 °F - 28.4 °F 26% 30.10 in 10.0 mi SSW 8.1 mph 18.4 mph N/A   Clear
1:55 PM 64.8 °F - 28.6 °F 26% 30.08 in 10.0 mi SW 5.8 mph - N/A   Clear
2:15 PM 65.7 °F - 28.8 °F 25% 30.08 in 10.0 mi Calm Calm - N/A   Clear
2:35 PM 66.0 °F - 28.2 °F 24% 30.07 in 10.0 mi WSW 11.5 mph 17.3 mph N/A   Clear
2:55 PM 67.5 °F - 28.8 °F 24% 30.06 in 10.0 mi SW 10.4 mph 16.1 mph N/A   Clear
3:15 PM 66.9 °F - 28.0 °F 23% 30.05 in 10.0 mi SSW 11.5 mph 17.3 mph N/A   Clear
3:35 PM 67.1 °F - 28.0 °F 23% 30.04 in 10.0 mi SW 6.9 mph - N/A   Clear
3:55 PM 67.6 °F - 27.7 °F 22% 30.04 in 10.0 mi SW 11.5 mph 20.7 mph N/A   Clear
4:15 PM 67.6 °F - 26.8 °F 22% 30.03 in 10.0 mi SW 13.8 mph 19.6 mph N/A   Clear
4:35 PM 68.2 °F - 27.7 °F 22% 30.03 in 10.0 mi SW 15.0 mph 19.6 mph N/A   Clear
4:55 PM 67.8 °F - 26.1 °F 21% 30.03 in 10.0 mi SW 6.9 mph 24.2 mph N/A   Clear
5:15 PM 68.4 °F - 26.4 °F 21% 30.03 in 10.0 mi SW 6.9 mph 16.1 mph N/A   Clear
5:35 PM 68.0 °F - 26.8 °F 21% 30.03 in 10.0 mi SW 10.4 mph 18.4 mph N/A   Clear
5:55 PM 67.3 °F - 26.8 °F 22% 30.03 in 10.0 mi SW 9.2 mph 17.3 mph N/A   Clear
6:15 PM 66.6 °F - 26.6 °F 22% 30.02 in 10.0 mi SSW 10.4 mph - N/A   Clear
6:35 PM 66.4 °F - 25.9 °F 22% 30.02 in 10.0 mi SW 8.1 mph - N/A   Clear
6:55 PM 65.8 °F - 26.4 °F 23% 30.02 in 10.0 mi SSW 5.8 mph - N/A   Clear
7:15 PM 65.1 °F - 26.1 °F 23% 30.02 in 10.0 mi SSW 5.8 mph - N/A   Clear
7:35 PM 62.8 °F - 27.0 °F 26% 30.02 in 10.0 mi SSW 5.8 mph - N/A   Clear
7:55 PM 61.9 °F - 27.5 °F 27% 30.02 in 10.0 mi SSW 6.9 mph - N/A   Clear
8:15 PM 61.2 °F - 27.9 °F 28% 30.02 in 10.0 mi South 5.8 mph - N/A   Clear
8:35 PM 59.9 °F - 28.4 °F 30% 30.03 in 10.0 mi SSW 5.8 mph - N/A   Clear
8:55 PM 59.0 °F - 28.4 °F 31% 30.03 in 10.0 mi South 4.6 mph - N/A   Clear
9:15 PM 56.5 °F - 29.3 °F 35% 30.04 in 10.0 mi South 3.5 mph - N/A   Clear
9:35 PM 51.3 °F - 30.9 °F 46% 30.04 in 10.0 mi Calm Calm - N/A   Clear
9:55 PM 51.6 °F - 30.2 °F 44% 30.04 in 10.0 mi SSW 4.6 mph - N/A   Clear
10:15 PM 52.9 °F - 31.3 °F 44% 30.04 in 10.0 mi SSW 4.6 mph - N/A   Clear
10:35 PM 54.7 °F - 30.2 °F 39% 30.04 in 10.0 mi SSW 4.6 mph - N/A   Clear
10:55 PM 54.5 °F - 30.4 °F 40% 30.05 in 10.0 mi SW 3.5 mph - N/A   Clear
11:15 PM 53.8 °F - 30.0 °F 40% 30.05 in 10.0 mi SSW 3.5 mph - N/A   Clear
11:35 PM 51.8 °F - 30.9 °F 45% 30.05 in 10.0 mi Calm Calm - N/A   Clear
11:55 PM 47.8 °F - 31.8 °F 54% 30.04 in 10.0 mi Calm Calm - N/A   Clear